Погода в Ямполе

Украина / Винницкая область     48°14′42″N   28°16′40″E
темп.,
°C
ветер,
м/с
пор.,
м/с
влажн.,
%
обл.,
%
осадки,
мм/ч
давл.,
гПа
погр.,
м
12 апреля, пн
пн1200:00+8вюв11510 0.0 102610
03:00+7в11530 0.0 102510
06:00+6всв11570 0.0 102410
09:00+10всв12495 0.0 1023217
12:00+14в22355 0.0 10221081
15:00+17св1132100 0.0 10201503
18:00+16в3236100 0.0 10191219
21:00+12вюв224997 0.0 102011
13 апреля, вт
вт1300:00+9в237395 0.0 102056
03:00+8вюв1174100 0.0 101910
06:00+7в118287 0.0 101910
09:00+10вюв2369100 0.0 1019260
12:00+14юв2250100 0.0 1018846
15:00+16ююв2242100 0.0 10171577
18:00+15вюв3452100 0.0 1016636
21:00+11в3771100 0.0 1016135
14 апреля, ср
ср1400:00+10вюв3377100 0.0 101674
03:00+8вюв2378100 0.0 101564
06:00+8юв3777100 0.0 1014299
09:00+10ююв476585 0.0 1014465
12:00+13ююв5654100 0.0 10141289
15:00+12ююв5664100 0.1 10131267
18:00+12ююв2462100 0.0 1012268
21:00+9ююв3781100 0.2 1013685
15 апреля, чт
чт1500:00+7в4689100 0.7 1012377
03:00+8всв3793100 2.3 1010562
06:00+8вюв5890100 0.4 1009476
09:00+7вюв5789100 0.5 1010564
12:00+8ю3385100 0.1 1011622
15:00+6юз4486100 0.1 1011534
18:00+4зюз4588100 0.0 1011469
21:00+3юз4592100 0.1 1011398
16 апреля, пт
пт1600:00+3зюз4692100 0.1 1011437
03:00+2юз5798100 0.7 1010335
06:00+2юз51098100 1.6 1010448
09:00+2ююз4899100 3.7 1010497
12:00+3ююз4797100 0.6 1012479
15:00+4ююз3596100 0.9 1013623
18:00+3ююв1397100 0.7 1014428
21:00+3св2397100 1.2 1015549